Terminal Aerodrome Forecast
Issued by NWS Upton, NY

Home | Current Version | Previous Version | Text Only | Print | Product List | Glossary On
Versions: 1 2 3 4 5 6 7 8 9 10 11 12 13 14 15 16 17 18 19 20 21 22 23 24 25 26 27 28
874
FTUS41 KOKX 122339
TAFJFK
TAF
KJFK 122339Z 1300/1406 24010KT P6SM BKN070
     FM130700 27011G18KT P6SM SCT025 BKN040
     FM130900 29019G27KT P6SM SCT040 BKN080
     FM131200 31026G35KT P6SM SCT050=

USA.gov is the U.S. government's official web portal to all federal, state and local government web resources and services.